Flag for U.S.A. Weather past 2 weeks in Philadelphia, Pennsylvania, U.S.A.

Now
76 °F

Scattered clouds.


Feels Like: 77 °F
Forecast: 68 / 80 °F
Wind: 14 mph from West

Location: Philadelphia International Airport

Current Time: Jul 28, 2014 at 10:09:10 AM

Latest Report: Jul 28, 2014 at 8:54 AM


Visibility: 10 mi

Pressure: 29.59 "Hg

Humidity: 74%

Dew point: 67 °F

Location of PhiladelphiaLocation

Historic Weather in Philadelphia — Graph

°F

Philadelphia temperature yesterday

Maximum temperature yesterday: 91 °F (at 3:54 PM)
Minimum temperature yesterday: 73 °F (at 12:54 AM)
Average temperature yesterday: 80 °F

Past Weeks' High & Low Weather Summary

 TemperatureHumidityPressure
High92 °F (Jul 23, 4:54 PM)93% (Jul 28, 12:54 AM)30.23 "Hg (Jul 28, 12:54 AM)
Low63 °F (Jul 25, 5:54 AM)22% (Jul 18, 5:54 PM)29.56 "Hg (Jul 28, 4:54 AM)
Average77 °F61%29.97 "Hg
* Reported Jul 13 8:54 AM — Jul 28 8:54 AM, Philadelphia, Weather by CustomWeather, © 2014

Note: Actual official high and low records may vary slightly from our data, if they occured in-between our weather recording intervals... More about our weather records

Advertising

Philadelphia weather history for previous 24 hours

 ConditionsComfort  
Time TempWeatherWind HumidityBarometerVisibility
8:54 AM
Jul 28
76 °FScattered clouds.14 mph74%29.59 "Hg10 mi
7:54 AM73 °FPartly sunny.10 mph88%29.58 "Hg10 mi
6:54 AM71 °FPartly cloudy.7 mph87%29.56 "Hg10 mi
5:54 AM70 °FPartly cloudy.6 mph87%29.56 "Hg10 mi
4:54 AM70 °FPartly cloudy.6 mph87%29.56 "Hg10 mi
3:54 AM70 °FPassing clouds.8 mph87%29.58 "Hg10 mi
2:54 AM70 °FOvercast.6 mph87%29.58 "Hg10 mi
1:54 AM71 °FThunderstorms. Mostly cloudy.8 mph90%29.62 "Hg8 mi
12:54 AM71 °FThunderstorms. Fog.6 mph93%29.64 "Hg5 mi
12:03 AM74 °FStrong thunderstorms. Mostly cloudy.10 mph82%29.67 "Hg2 mi
12:01 AM74 °FStrong thunderstorms. Mostly cloudy.12 mph82%29.67 "Hg3 mi
10:54 PM
Jul 27
79 °FOvercast.7 mph74%29.66 "Hg10 mi
9:54 PM80 °FPartly cloudy.8 mph74%29.69 "Hg10 mi
8:54 PM81 °FLight rain. Broken clouds.10 mph72%29.68 "Hg10 mi
7:54 PM83 °FBroken clouds.13 mph68%29.68 "Hg10 mi
6:54 PM85 °FBroken clouds.14 mph65%29.68 "Hg10 mi
5:54 PM87 °FBroken clouds.10 mph57%29.69 "Hg10 mi
4:54 PM88 °FBroken clouds.14 mph54%29.71 "Hg10 mi
3:54 PM91 °FBroken clouds.10 mph49%29.72 "Hg10 mi
2:54 PM89 °FBroken clouds.12 mph50%29.74 "Hg10 mi
1:54 PM88 °FBroken clouds.12 mph52%29.74 "Hg10 mi
12:54 PM85 °FScattered clouds.10 mph53%29.75 "Hg10 mi
11:54 AM84 °FBroken clouds.14 mph55%29.77 "Hg10 mi
10:54 AM81 °FPartly sunny.15 mph60%29.79 "Hg10 mi
Weather by CustomWeather, © 2014

See weather overviewHow to use our weather pages